Location: ???????
(55.3490°N, 37.8416°E)
Time: 07:57:29
(UTC+00:00)

Daily predictions for brighter satellites

Satellite Brightness Start Highest point End
(mag) Time Altitude Azimuth Time Altitude Azimuth Time Altitude Azimuth
NOSS 3-2 (C) 4.1 13:34:01 10° S 13:38:37 34° ESE 13:44:01 10° ENE
Cosmos 2297 Rocket 2.6 13:34:14 10° NW 13:39:55 72° WSW 13:45:33 10° SSE
Cosmos 2034 Rocket 4.3 13:34:37 10° SSW 13:40:58 75° WNW 13:47:23 10° N
Cosmos 2266 Rocket 4.2 13:35:18 10° N 13:41:15 47° ENE 13:47:04 10° SE
ACS3 Solar Sail 4.3 13:38:43 10° WSW 13:41:23 13° WNW 13:44:06 10° NW
Meteor 1-20 Rocket 4.3 13:36:27 10° N 13:41:49 52° ENE 13:47:09 10° SE
Cosmos 1626 Rocket 3.5 13:37:28 10° N 13:41:49 82° ENE 13:46:07 10° SSE
Cosmos 1356 Rocket 3.4 13:39:34 10° SSW 13:43:39 88° WNW 13:47:47 10° NNE
Cosmos 2228 3.0 13:40:16 10° S 13:44:30 76° E 13:48:45 10° NNE
SJ 16-02 3.7 13:46:08 10° NW 13:47:15 11° NNW 13:48:23 10° NNW
Cosmos 2084 4.0 13:44:07 10° W 13:48:10 46° NNW 13:52:10 10° NE
Cosmos 44 Rocket 4.2 13:45:06 10° NW 13:49:41 33° NNE 13:54:20 10° E
Iridium 51 3.7 13:47:18 10° S 13:50:28 76° E 13:53:42 10° N
JB-3 4.3 13:49:21 10° NNE 13:52:58 54° E 13:56:31 10° S
Cosmos 1315 Rocket 3.1 13:50:13 10° SSW 13:54:02 65° WNW 13:57:51 10° N
IGS 5A 3.5 13:50:38 10° SE 13:54:29 52° ENE 13:58:23 10° N
CZ-4C R/B 3.5 13:49:12 10° NW 13:55:48 65° SW 14:04:06 10° SSE
Cosmos 1461 3.4 13:52:34 10° SSW 13:56:14 40° SE 13:59:53 10° ENE
Cosmos 2151 2.9 13:52:29 10° N 13:56:38 63° ENE 14:00:47 10° SSE
Cosmos 1867 4.2 13:52:35 10° NW 13:58:00 63° SW 14:03:22 10° SSE
ARIANE 5 R/B 3.0 13:54:11 10° SE 13:58:54 39° ENE 14:03:42 10° N
Cosmos 1844 Rocket 3.7 13:55:53 10° NNW 14:00:34 26° NNE 14:05:14 10° E
USA 290 4.1 13:58:15 10° NW 14:01:17 36° WSW 14:04:18 10° S
CORIOLIS 4.2 13:58:52 10° SE 14:04:04 55° ENE 14:09:17 10° N
Cosmos 1544 Rocket 3.6 13:59:43 10° S 14:04:07 70° E 14:08:33 10° NNE
Cosmos 2219 3.5 13:58:48 10° NNW 14:04:22 47° NE 14:09:55 10° ESE
CENTAUR R/B 3.0 14:00:02 10° WSW 14:06:09 65° NNW 14:13:39 11° NE
Cosmos 1980 Rocket 3.6 14:03:07 10° SE 14:07:03 20° E 14:10:31 12° ENE
Cosmos 2263 Rocket 2.2 14:04:16 10° NNW 14:09:55 65° NE 14:15:35 10° SE
IRS-1C 4.3 14:06:30 10° SE 14:11:36 48° ENE 14:16:43 10° N
Meteor 1-28 Rocket 3.4 14:12:45 10° NNE 14:15:57 40° E 14:19:07 10° S
CBERS-1 4.1 14:12:33 10° SSE 14:17:41 86° WSW 14:22:50 10° NNW
Cosmos 1943 Rocket 4.0 14:15:22 10° NW 14:18:41 16° N 14:22:01 10° NE
Meteor 1-5 Rocket 4.2 14:14:09 10° N 14:19:24 54° ENE 14:24:46 10° SSE
NOSS 2-2 (D) 2.7 14:18:07 10° WSW 14:21:14 74° NW 14:23:27 17° NE
Cosmos 1602 Rocket 3.7 14:17:13 10° NNW 14:21:37 76° W 14:25:56 10° S
CZ-2D R/B 3.2 14:21:43 10° SE 14:24:39 38° ENE 14:27:37 10° N
Cosmos 1782 2.8 14:22:00 10° SSW 14:25:35 70° WNW 14:29:11 10° N
SPOT 1/Viking Rocket 4.1 14:21:16 10° SE 14:25:56 35° ENE 14:30:37 10° N
SAR-Lupe-4 3.8 14:23:38 10° SE 14:27:03 46° ENE 14:30:29 10° N
AQUARIUS 4.4 14:23:03 10° SE 14:27:15 45° ENE 14:31:29 10° N
Cosmos 1538 Rocket 4.0 14:22:09 10° NNW 14:27:26 68° ENE 14:32:44 10° SE
NOSS 2-3 (E) 4.5 14:24:31 10° S 14:27:33 25° ESE 14:29:28 17° E
YAOGAN 1 3.6 14:24:37 10° ESE 14:27:56 23° ENE 14:31:16 10° N
Meteor 1-25 Rocket 4.3 14:24:18 10° NNW 14:30:10 88° ENE 14:35:56 10° SSE
Cosmos 2227 Rocket 2.7 14:26:05 10° NW 14:31:42 66° WSW 14:37:17 10° SSE
Okean 1-7 Rocket 3.6 14:29:13 10° NNW 14:33:38 83° W 14:37:59 10° S
SL-16 R/B 2.5 14:28:47 10° NNE 14:35:03 81° ESE 14:41:16 10° SSW
Cosmos 2369 Rocket 3.8 14:32:43 10° W 14:37:14 24° NNW 14:41:48 10° NNE
Cosmos 1933 3.2 14:34:23 10° S 14:38:08 57° E 14:41:45 11° NNE
Cosmos 1743 4.2 14:36:32 10° NNW 14:39:29 32° W 14:42:24 10° SSW
Cosmos 1503 Rocket 3.9 14:34:29 10° SSW 14:39:43 80° ESE 14:44:30 12° NNE
USA 238 DEB 4.3 14:34:41 10° S 14:40:08 34° ESE 14:44:05 18° ENE
MOS 1 Rocket 3.5 14:35:15 10° SSE 14:40:15 59° ENE 14:45:29 10° N
USA 238 4.3 14:34:49 10° S 14:40:15 33° ESE 14:44:11 18° ENE
SAR-Lupe-1 4.1 14:36:58 10° SSE 14:40:29 56° ENE 14:44:04 10° N
SMAP 3.1 14:36:36 10° SSE 14:41:16 89° WSW 14:45:57 10° NNW
Lacrosse 4 Rocket 3.1 14:39:21 10° W 14:42:32 22° NNW 14:45:13 12° NNE
PSLV R/B 4.4 14:40:53 12° ESE 14:43:49 25° ENE 14:47:10 10° N
Landsat 7 3.7 14:40:26 10° SSE 14:45:05 81° ENE 14:49:47 10° NNW
Cosmos 1697 Rocket 2.7 14:39:57 10° SSW 14:45:29 64° ESE 14:49:54 17° NE
USA 215 3.3 14:40:15 17° ENE 14:45:33 81° N 14:52:08 10° W
Cosmos 1953 Rocket 3.5 14:42:17 10° N 14:46:44 65° ENE 14:51:10 10° SSE
Lacrosse 5 rocket 1.0 14:43:30 10° W 14:47:13 66° N 14:49:01 27° ENE
Thor Agena Rocket 3.9 14:43:30 10° S 14:48:40 68° WSW 14:53:47 10° NNW
NOSS 2-2 (E) 3.1 14:46:46 10° WSW 14:49:48 54° NNW 14:51:12 27° NNE
Cosmos 1656 4.2 14:45:18 10° SW 14:50:53 58° NW 14:55:57 13° NNE
Cosmos 2360 4.4 14:45:22 10° SW 14:51:04 72° NW 14:56:03 14° NNE
Cosmos 1354 Rocket 4.0 14:46:08 10° SSW 14:51:22 73° ESE 14:55:39 16° NNE
Cosmos 1777 Rocket 4.1 14:46:23 10° SSW 14:51:38 77° WNW 14:56:25 13° NNE
SJ-12 3.6 14:48:21 10° SSE 14:52:08 80° ENE 14:55:57 10° NNW
Cosmos 2278 Rocket 3.9 14:48:50 10° NW 14:52:25 17° N 14:54:34 14° NNE
BREEZE-M DEB (TANK) 4.3 14:50:14 10° WSW 14:53:17 42° S 15:01:44 10° ESE
Cosmos 1825 Rocket 3.8 14:49:36 10° NNW 14:53:57 71° W 14:58:14 10° S
Cosmos 1076 Rocket 3.4 14:51:32 10° N 14:55:53 83° E 15:00:12 10° SSE
Cosmos 1898 Rocket 4.3 14:53:14 10° SSE 14:57:42 31° ESE 14:59:22 25° ENE
NOSS 2-2 (C) 4.0 14:55:21 10° W 14:58:02 29° NNW 14:59:06 23° NNE
ERS-1 4.4 14:54:29 10° SSE 14:59:30 87° ENE 15:04:29 10° NNW
Cosmos 2112 Rocket 4.3 14:55:00 10° NNW 14:59:57 42° NE 15:04:01 15° ESE
Spot 4 Rocket 4.2 14:55:13 10° SE 15:00:04 46° ENE 15:04:58 10° N
IRS-P3 4.0 14:55:17 10° SSE 15:00:35 79° ENE 15:05:56 10° NNW
Cosmos 2098 Rocket 4.3 14:58:37 10° SW 15:03:07 48° WNW 15:08:20 10° N
Cosmos 1805 2.9 15:02:18 10° N 15:05:37 53° ENE 15:08:55 10° SSE
Cosmos 1655 Rocket 4.0 15:01:43 10° NNW 15:08:00 87° W 15:14:13 10° S
Cosmos 923 Rocket 3.9 15:03:36 10° NNW 15:08:48 67° ENE 15:13:58 10° SE
Radarsat Rocket 4.5 15:02:03 10° SE 15:09:39 60° ENE 15:16:23 10° NNW
Cosmos 1937 Rocket 4.2 15:07:19 10° SSE 15:11:46 30° ESE 15:12:17 29° E
Cosmos 990 Rocket 3.9 15:08:59 10° SSW 15:14:08 90° NW 15:17:45 20° NNE
Cosmos 1844 3.9 15:09:21 10° NNW 15:14:48 47° NE 15:17:29 27° ESE
GEOS 3 Rocket 4.0 15:12:45 29° ENE 15:15:10 49° SE 15:20:23 10° SSW
Resurs 01 Rocket 3.2 15:18:08 19° NNE 15:18:08 19° NNE 15:19:49 10° N
Cosmos 494 Rocket 4.2 15:15:04 10° NNW 15:20:11 49° NE 15:22:41 28° ESE
Cosmos 2082 3.8 15:15:09 10° NW 15:20:54 81° WSW 15:26:38 10° SSE
Meteor 2-11 Rocket 4.5 15:14:55 10° N 15:21:00 55° ENE 15:27:00 10° SSE
Gbstr 26 Del rocket 3.4 15:18:17 10° SW 15:22:02 40° SSE 15:22:51 35° SE
SJ-7 4.2 15:23:14 41° ESE 15:24:12 56° ENE 15:27:56 10° N
NOSS 3-2 (A) 3.9 15:19:43 10° W 15:25:08 52° NNW 15:28:38 27° NE
Cosmos 2058 Rocket 3.0 15:23:39 10° S 15:28:04 63° E 15:29:48 35° NNE
NOSS 3-2 (C) 3.4 15:23:34 10° WSW 15:28:56 73° NNW 15:32:13 30° NE
CZ-4 R/B 4.3 15:25:42 10° SSE 15:29:39 83° WSW 15:33:38 10° NNW
IRAS Rocket 4.1 15:25:01 10° SE 15:30:26 66° ENE 15:35:53 10° NNW
Cosmos 44 Rocket 3.3 15:26:40 10° NW 15:31:49 75° NE 15:34:02 35° ESE
Cosmos 1606 Rocket 4.3 15:27:57 10° SSW 15:32:17 52° WNW 15:36:35 10° N
Cosmos 2227 4.1 15:27:17 10° NNW 15:32:58 68° NE 15:36:18 25° SE
Cosmos 1461 3.5 15:29:12 10° WSW 15:32:59 44° NNW 15:34:00 36° N
Aureole 1 Rocket 3.5 15:28:59 10° SSW 15:33:52 72° ESE 15:37:03 29° NE
Meteor 2-9 Rocket 4.3 15:30:56 10° N 15:36:03 43° ENE 15:36:10 43° ENE
SL-16 R/B 3.9 15:32:27 10° SSE 15:34:05 16° SE 15:34:05 16° SE
ARIANE 5 R/B 3.7 15:33:05 10° S 15:37:56 43° W 15:42:52 10° NNW
Okean 1 4.0 15:35:44 10° S 15:37:57 34° SSE 15:37:57 34° SSE
Cosmos-2242 2.8 15:35:27 10° S 15:39:41 74° E 15:40:30 55° NE
Cosmos 1680 Rocket 3.4 15:34:52 10° NNW 15:40:08 84° ENE 15:45:16 11° SSE
Cosmos 1844 Rocket 2.6 15:39:42 10° NNW 15:45:24 72° NE 15:47:51 35° SE
Resurs 1-3 3.5 15:42:45 10° SSE 15:47:04 88° WSW 15:51:25 10° NNW
Cosmos 2219 4.2 15:43:06 10° NW 15:48:34 47° WSW 15:54:02 10° S
NOAA 6 3.8 15:44:08 10° SSE 15:49:13 75° ENE 15:54:20 10° NNW
Nadezhda 2 Rocket 4.4 15:43:05 10° NNW 15:49:14 85° W 15:55:20 10° S
Cosmos 1980 Rocket 2.1 15:44:37 10° SSW 15:50:17 85° ESE 15:52:17 42° NE
USA 281 4.0 15:50:37 31° NE 15:50:47 31° NE 15:56:24 10° NNW
Cosmos 2263 Rocket 4.0 15:48:34 10° NW 15:53:31 32° WSW 15:58:28 10° SSW
OceanSat 1 rocket 4.5 15:49:57 10° SSE 15:54:42 87° ENE 15:59:26 10° NNW
Meteor 2-2 Rocket 4.1 15:51:20 10° S 15:56:58 85° ESE 16:00:12 27° NNE
Cosmos 1553 Rocket 3.9 15:51:35 10° S 15:57:45 76° E 16:04:05 10° NNE
CENTAUR R/B 3.4 15:51:25 10° WNW 15:57:58 46° N 16:00:45 35° NE
CZ-2D R/B 4.0 15:54:37 10° S 15:58:44 58° WSW 16:02:48 10° NNW
EO 1 Delta rocket 4.3 15:58:37 55° E 15:58:51 55° ENE 16:05:10 10° N
NOSS 2-3 (C) 3.6 15:56:52 10° SW 15:59:41 57° WSW 15:59:41 57° WSW
COSMOS 2455 3.5 15:55:08 10° S 15:59:48 38° SE 15:59:48 38° SE
Meteor 1-26 Rocket 4.0 15:55:48 10° SSW 16:01:12 89° WNW 16:03:54 31° NNE
YAOGAN 1 2.9 15:59:14 10° S 16:03:27 62° WSW 16:07:42 10° NNW
Cosmos 1943 Rocket 3.7 16:00:19 10° NNW 16:03:34 21° N 16:03:34 21° N
Cosmos 1709 Rocket 3.9 15:58:55 10° N 16:04:59 60° ENE 16:05:39 57° ESE
SPOT 1/Viking Rocket 4.4 16:00:06 10° S 16:05:09 50° W 16:10:15 10° NNW
Meteor 2-20 Rocket 4.5 16:01:09 10° SSW 16:07:18 78° WNW 16:12:37 13° N
Cosmos 1745 Rocket 3.8 16:03:48 10° N 16:10:01 81° ENE 16:16:10 10° SSE
Cosmos 2369 3.6 16:04:24 10° SSW 16:10:06 74° ESE 16:10:35 70° E
NOSS 2-3 (D) 4.1 16:12:09 10° WSW 16:15:00 48° W 16:15:00 48° W
SKYMED 2 3.8 16:16:13 67° WNW 16:16:13 67° WNW 16:20:28 10° SSW
NOSS 2-3 (E) 4.2 16:13:29 10° WSW 16:16:17 45° W 16:16:17 45° W
SL-16 R/B 4.2 16:12:52 10° N 16:18:06 29° NW 16:23:19 10° WSW
PSLV R/B 4.2 16:17:07 30° SSW 16:18:48 49° W 16:22:47 10° NNW
Lacrosse 4 Rocket 3.9 16:19:42 10° NW 16:20:42 12° NNW 16:20:42 12° NNW
Cosmos 2369 Rocket 4.1 16:19:46 10° NW 16:23:22 17° N 16:23:38 17° N
Lacrosse 5 rocket 2.9 16:20:38 10° WNW 16:22:36 29° WNW 16:22:36 29° WNW
COSMO-SKYMED 1 4.3 16:27:44 23° SSW 16:27:44 23° SSW 16:29:23 10° SSW
USA 215 3.1 16:27:35 68° E 16:28:34 84° N 16:35:09 10° WNW
Cosmos 1697 Rocket 3.9 16:24:37 10° WSW 16:29:48 37° NW 16:31:37 30° N
USA 238 DEB 3.5 16:24:10 10° SW 16:30:28 81° NW 16:31:31 65° NE
USA 238 3.5 16:24:16 10° SW 16:30:35 82° NW 16:31:37 66° NE
Cosmos 2278 Rocket 3.8 16:33:38 10° NNW 16:36:24 22° N 16:36:24 22° N
Cosmos 1898 Rocket 4.0 16:34:22 10° SW 16:39:27 56° NW 16:39:35 56° NW
Cosmos 2333 Rocket 4.4 16:35:49 10° S 16:36:34 14° S 16:36:34 14° S
Cosmos 967 Rocket 4.5 16:38:33 10° SW 16:44:23 75° SSW 16:44:23 75° SSW
Resurs 01 Rocket 4.0 16:55:31 16° NNW 16:55:31 16° NNW 16:56:33 10° NNW
GEOS 3 Rocket 4.2 16:53:48 57° WNW 16:53:48 57° WNW 16:58:34 10° WSW
Cosmos 1937 Rocket 4.3 16:48:17 10° SW 16:52:25 49° W 16:52:25 49° W
Meteor 1-11 Rocket 4.2 16:50:31 10° NNW 16:55:24 58° NW 16:55:24 58° NW
NOSS 3-2 (A) 4.5 17:11:19 10° WNW 17:15:59 40° NNW 17:15:59 40° NNW
SL-16 R/B 4.2 17:14:25 10° SSW 17:15:59 19° SW 17:15:59 19° SW
NOSS 3-2 (C) 4.5 17:15:05 10° WNW 17:19:38 40° NNW 17:19:38 40° NNW
Cosmos 1844 Rocket 4.4 17:24:07 10° NW 17:28:50 28° WSW 17:29:33 27° WSW
USA 281 4.3 17:37:29 38° NNW 17:37:29 38° NNW 17:41:16 10° NNW
Cosmos 1980 Rocket 3.8 17:29:58 10° W 17:34:02 29° NW 17:34:02 29° NW
CENTAUR R/B 3.7 17:42:33 10° NW 17:47:51 47° NNW 17:47:51 47° NNW
